Location: Barrio de Canyet
(41.4665°N, 2.2381°E)
Time: 01:22:12
(UTC+00:00)

STARLINK-1238 - Pass Details

Date: 09 April 2020
Orbit: 549 x 551 km, 53.0° (Epoch: 31 May)

Event Time Altitude Azimuth Distance (km) Brightness Sun altitude
Rises 20:03:04 0° 307° (NW) 2,729 8.8 -18.0°
Reaches altitude 10° 20:05:19 10° 306° (NW) 1,832 7.5 -18.3°
Maximum altitude 20:09:28 79° 220° (SW) 566 3.6 -19.0°
Enters shadow 20:10:33 48° 143° (SE) 722 3.8 -19.2°
